Vertical_Velocity
1 4 -4 -4 5 9 1 2 -7 8 -3 -18 -6 -8 -33 7 2 2 5 -5 1 -1 -0 3 2 3 4 0 0 0 -1 2 -0 -3 2 2 -1 -1 2 -1 -1 4 1
5 3 5 1 8 3 -2 -1 17 10 -11 14 15 0 4 29 7 2 3 -1 2 5 1 1 1 1 3 1 -0 -0 -1 1 -1 -2 -4 -4 8 6 3 4 1 0 4
2 10 11 5 2 3 2 4 9 1 10 22 16 7 -0 10 3 2 2 2 5 5 3 5 4 3 4 3 3 2 -1 -1 2 0 -2 -11 -7 -4 2 1 -1 3 0
-2 -3 2 3 4 4 4 -2 6 14 -21 4 11 5 -17 -15 13 18 15 16 12 14 7 6 5 7 8 5 6 5 3 -0 -1 -0 0 1 -5 -9 -11 2 -1 2 1
-0 -2 -1 0 0 5 1 0 -0 -5 -3 5 5 9 -7 2 3 -8 24 13 13 14 12 13 10 0 -0 -1 4 12 5 4 1 -2 -3 -2 3 1 -2 -8 3 2 -1
-1 2 -1 -7 -3 -1 3 4 1 5 2 1 1 16 4 -4 9 6 -7 -2 4 1 13 6 3 -4 -5 -5 -11 -6 -6 -2 -0 0 0 1 -1 3 2 -2 3 -1 -1
2 6 4 4 0 -4 -1 0 -0 -0 -3 -1 0 -0 2 -16 4 2 -0 -1 -7 -10 4 12 19 9 7 3 9 3 -1 -1 3 -1 1 -0 1 -2 1 -1 4 0 -0
4 5 -0 5 3 2 -4 -0 1 2 -1 2 -6 -1 4 -7 1 -14 -1 5 -0 1 -2 -7 5 -3 -4 -15 -0 3 -1 4 1 -1 -2 1 2 -2 1 -2 -2 -1 4
2 -1 -1 6 4 3 6 4 -1 -5 -2 4 7 3 1 7 2 2 13 3 6 4 4 3 -5 -1 4 2 -0 -1 -1 -1 -1 5 2 -1 0 1 -0 1 -1 -1 -1
-2 -1 1 -1 3 4 2 -2 -3 -1 -1 1 1 4 6 -2 1 -2 4 2 -2 -3 -7 -12 -4 -7 -8 1 -4 2 -2 2 3 -1 -1 -3 3 3 2 2 1 2 -1
0 -2 -3 -3 -4 -6 -3 -2 0 5 0 2 0 -1 -1 1 1 -0 -1 -4 -0 1 -2 1 2 1 -1 -3 -0 1 0 -2 1 2 1 0 2 1 -2 2 1 2 0
3 -4 3 1 2 -2 1 5 4 -1 -3 -3 -4 1 1 0 2 2 4 1 1 -0 3 2 0 0 -2 1 -1 -1 2 1 -0 1 -0 2 3 1 -1 1 -0 3 3
2 1 -2 -3 -2 -5 -1 -4 -3 -3 1 -2 -3 -5 -1 -2 0 1 1 -1 -3 -2 2 1 0 -1 -1 -0 0 2 -0 -2 1 -2 -0 2 -0 5 -1 1 0 -2 0
-6 -6 -1 3 2 -1 0 2 -3 0 -2 0 -0 2 1 0 0 2 2 3 3 2 1 -1 -0 -1 -2 -0 -1 -1 -2 -3 0 -1 3 -2 2 -1 3 -1 3 1 -2
-8 -5 -6 -5 -2 -3 -4 3 -1 -1 -2 2 2 2 2 1 -0 -0 0 0 -0 -0 1 1 -0 -2 -1 -3 -2 0 0 -1 2 -2 -0 -0 0 2 2 -1 1 3 -2
-3 -5 -7 -4 -1 -2 -0 1 3 1 -2 -2 1 0 -1 -1 0 -1 -1 -1 -1 0 0 -1 -1 -1 -1 -3 -2 -2 -2 -2 0 1 -1 1 -0 2 1 -0 -1 2 -1
-1 -2 -2 2 3 -4 -4 2 -0 -2 -4 3 3 2 1 -1 -1 -1 -0 1 -1 -2 -3 1 1 -0 0 1 1 0 1 -2 -1 -1 0 0 0 0 0 0 2 1 1
-5 -5 -3 -1 -2 -0 -2 -7 -5 0 3 3 2 0 1 -1 -0 -1 0 1 3 -0 -2 -2 -1 1 0 -0 -1 -2 -2 -2 -0 1 0 -1 0 -0 -0 0 1 1 2
1 -1 -1 -0 0 -2 -3 -2 0 3 2 0 1 1 1 1 -0 -2 -1 2 1 1 1 -2 0 -0 -1 -2 -2 -1 -1 -1 -0 -0 -1 -1 -1 -0 0 1 -0 1 2
1 -1 -1 -2 -2 -2 -4 -1 -2 1 1 2 2 -1 -2 -2 -1 -1 -2 -3 -0 0 -1 0 -2 -0 1 1 -2 -1 -2 -1 -1 -1 -0 2 0 -1 2 -2 -0 -0 2
0 1 1 -0 -1 -1 -4 1 -1 -4 -0 1 3 3 -1 -1 -1 -1 -1 -3 0 1 -1 1 -1 -2 -1 -2 -1 -2 -2 -1 -2 -1 -0 -1 -1 0 -1 3 0 3 -2
1 -0 -2 0 1 2 -2 2 2 -2 0 -0 1 -0 2 3 1 -1 2 -1 -1 -1 -0 0 -1 -1 -2 -1 -1 -1 -1 -0 -0 -1 0 0 1 1 -4 -1 -1 1 -1
4 -0 -2 0 -1 -2 -4 3 1 -1 1 2 2 2 2 1 1 -3 3 0 1 -1 -0 -0 -2 -1 -2 -1 -1 -1 -0 0 -1 1 0 1 1 -2 -3 -0 0 -1 -1
-1 -3 -2 -1 1 -0 1 -4 -1 -0 -1 2 0 -1 1 -0 -1 -1 1 1 0 -1 -1 -2 -0 0 -2 -1 -1 -1 -2 0 1 1 -2 -0 0 -0 0 -0 -0 -0 -0
-2 -0 -2 -1 0 -1 2 -1 -1 -3 2 2 2 2 1 3 -1 -2 -0 -1 0 -0 -1 0 -2 -1 1 1 -5 -0 -1 0 -2 -1 -1 2 1 1 1 1 1 1 1
-0 1 0 -2 1 -0 -0 2 1 1 -1 3 2 2 2 1 -0 -0 0 -1 -1 -1 -2 -1 -0 -0 -0 -1 -0 2 0 1 -2 2 0 1 1 2 1 1 -4 -1 0
Height
3099 3104 3110 3115 3119 3118 3121 3125 3128 3130 3132 3136 3139 3138 3142 3147 3150 3151 3153 3154 3155 3156 3157 3158 3159 3161 3162 3163 3163 3163 3163 3162 3160 3159 3158 3157 3156 3154 3153 3150 3148 3145 3144
3098 3103 3107 3109 3110 3111 3117 3121 3124 3126 3132 3133 3135 3136 3139 3142 3145 3146 3146 3147 3149 3151 3151 3152 3154 3156 3157 3157 3158 3158 3158 3158 3156 3153 3151 3150 3152 3149 3148 3146 3143 3141 3138
3094 3100 3103 3105 3107 3110 3114 3118 3121 3125 3127 3127 3130 3131 3134 3137 3138 3139 3140 3141 3142 3144 3145 3147 3149 3151 3152 3153 3153 3153 3153 3153 3152 3149 3147 3143 3142 3141 3140 3138 3136 3134 3132
3089 3093 3097 3100 3103 3108 3111 3114 3116 3119 3122 3124 3126 3128 3132 3133 3134 3135 3136 3135 3137 3138 3139 3141 3143 3144 3145 3146 3147 3148 3147 3147 3147 3145 3143 3140 3137 3134 3133 3134 3131 3128 3126
3086 3089 3092 3096 3100 3104 3108 3111 3112 3115 3116 3119 3121 3123 3125 3129 3130 3128 3125 3126 3128 3132 3135 3136 3136 3137 3136 3137 3139 3142 3142 3142 3141 3141 3139 3136 3132 3129 3124 3123 3125 3122 3119
3082 3086 3089 3092 3096 3100 3102 3105 3108 3112 3114 3116 3117 3117 3118 3119 3123 3123 3123 3123 3124 3125 3125 3126 3128 3131 3131 3132 3132 3135 3136 3135 3133 3132 3131 3129 3126 3123 3119 3115 3113 3114 3113
3079 3083 3086 3089 3093 3095 3097 3100 3102 3105 3107 3108 3111 3112 3113 3112 3115 3117 3118 3119 3120 3121 3119 3121 3124 3125 3126 3127 3128 3128 3128 3127 3126 3124 3123 3122 3119 3116 3112 3109 3106 3103 3102
3076 3079 3082 3085 3087 3089 3091 3095 3098 3100 3102 3103 3105 3106 3107 3108 3109 3111 3112 3113 3113 3113 3115 3115 3117 3117 3119 3120 3121 3121 3119 3119 3117 3116 3114 3113 3111 3108 3104 3102 3100 3096 3094
3074 3077 3080 3082 3083 3086 3087 3089 3091 3094 3096 3098 3099 3099 3100 3101 3102 3104 3104 3106 3106 3107 3108 3110 3110 3111 3114 3115 3114 3112 3111 3111 3110 3108 3106 3104 3102 3099 3096 3094 3092 3089 3086
3071 3074 3076 3078 3080 3082 3083 3085 3087 3088 3088 3089 3091 3092 3094 3094 3095 3096 3097 3099 3100 3102 3102 3104 3105 3105 3107 3107 3106 3106 3104 3103 3102 3101 3098 3095 3093 3090 3088 3086 3084 3082 3080
3069 3072 3075 3076 3077 3077 3079 3079 3080 3081 3081 3081 3083 3084 3085 3086 3088 3090 3091 3093 3094 3095 3096 3096 3098 3099 3100 3099 3099 3098 3097 3095 3093 3091 3088 3087 3084 3081 3079 3078 3076 3074 3073
3069 3071 3072 3074 3074 3075 3076 3076 3077 3076 3077 3076 3076 3077 3078 3079 3081 3082 3084 3085 3086 3087 3088 3089 3090 3090 3090 3091 3091 3089 3087 3085 3083 3081 3079 3077 3075 3073 3071 3070 3067 3066 3065
3068 3070 3070 3071 3070 3071 3071 3071 3070 3070 3069 3069 3069 3070 3070 3071 3072 3073 3074 3076 3078 3079 3080 3081 3081 3081 3081 3081 3081 3079 3078 3076 3074 3073 3070 3068 3067 3065 3063 3061 3059 3058 3057
3065 3066 3067 3066 3065 3064 3064 3064 3062 3062 3062 3062 3061 3061 3062 3062 3063 3065 3066 3067 3069 3070 3071 3072 3072 3072 3073 3073 3072 3070 3068 3067 3066 3063 3062 3060 3058 3056 3054 3053 3052 3050 3049
3062 3062 3061 3060 3059 3057 3056 3056 3055 3055 3054 3054 3054 3053 3053 3054 3055 3056 3057 3058 3060 3061 3063 3063 3064 3064 3065 3064 3063 3061 3060 3058 3057 3055 3053 3052 3050 3048 3046 3044 3043 3043 3041
3057 3056 3055 3054 3052 3049 3049 3048 3047 3047 3047 3048 3048 3047 3047 3047 3047 3048 3049 3050 3052 3053 3055 3056 3057 3057 3056 3055 3054 3053 3052 3050 3048 3047 3045 3042 3041 3039 3038 3036 3035 3035 3035
3051 3050 3049 3047 3044 3043 3042 3042 3040 3040 3039 3040 3039 3040 3040 3040 3041 3042 3043 3044 3046 3047 3048 3049 3049 3049 3049 3048 3046 3045 3043 3041 3039 3037 3036 3034 3032 3030 3029 3029 3028 3028 3029
3045 3044 3043 3041 3039 3037 3035 3035 3034 3034 3032 3031 3031 3032 3033 3033 3034 3035 3037 3038 3039 3040 3041 3042 3042 3042 3041 3040 3038 3037 3034 3033 3031 3029 3026 3025 3023 3023 3022 3022 3022 3023 3024
3039 3038 3036 3035 3034 3031 3029 3029 3028 3026 3024 3025 3024 3024 3024 3025 3026 3029 3030 3031 3032 3033 3034 3035 3035 3035 3034 3032 3030 3029 3026 3024 3022 3020 3018 3017 3016 3016 3016 3017 3018 3019 3020
3031 3029 3027 3026 3025 3023 3020 3020 3020 3019 3016 3014 3014 3014 3014 3016 3018 3020 3021 3023 3025 3026 3027 3027 3028 3027 3026 3025 3023 3021 3019 3017 3016 3014 3012 3011 3010 3010 3012 3013 3014 3015 3017
3024 3021 3019 3018 3016 3015 3012 3012 3011 3010 3009 3008 3006 3006 3006 3008 3010 3011 3012 3015 3016 3018 3019 3020 3020 3020 3019 3018 3016 3014 3012 3010 3009 3007 3006 3006 3007 3007 3009 3009 3011 3012 3014
3014 3011 3008 3007 3006 3003 3001 3002 3002 3000 3000 2999 2999 2999 2999 3000 3001 3002 3004 3006 3008 3010 3011 3011 3012 3012 3011 3010 3008 3006 3005 3003 3002 3001 3001 3001 3002 3003 3005 3006 3007 3009 3011
3006 3003 3000 2998 2997 2994 2991 2991 2992 2990 2990 2990 2990 2991 2991 2992 2992 2993 2995 2997 2999 3000 3002 3003 3003 3003 3002 3001 3000 2998 2997 2997 2995 2995 2996 2997 2998 3000 3001 3003 3003 3005 3005
2998 2995 2992 2989 2988 2985 2983 2980 2981 2980 2980 2981 2981 2982 2983 2984 2984 2985 2986 2988 2990 2991 2992 2993 2993 2992 2992 2992 2991 2990 2989 2988 2988 2990 2991 2993 2994 2995 2997 2998 2999 3000 3001
2991 2988 2985 2982 2980 2978 2975 2973 2971 2970 2971 2972 2973 2974 2974 2975 2976 2977 2978 2979 2981 2982 2982 2983 2982 2982 2982 2981 2980 2981 2982 2980 2981 2984 2986 2988 2989 2990 2992 2993 2994 2995 2996
2984 2981 2978 2975 2973 2970 2968 2966 2963 2962 2961 2963 2965 2966 2967 2967 2968 2969 2970 2971 2972 2972 2972 2972 2971 2971 2970 2970 2971 2973 2974 2974 2976 2979 2981 2982 2983 2985 2986 2988 2989 2990 2990